,,Stat1,,Stat2,,Stat3,,Stat4,,Wind1,,Wind1,
time,status,PR1M_SUM,status,RH1M_AVG,status,SR1M_AVG,status,TA1M_AVG,status,W1dAve1m,status,W1sAve1m,
1999-08-13, 00:00:00,VALID,0,VALID,98.8851,VALID,-0.0679233,VALID,20.2703,VALID,105,VALID,0.363567,
1999-08-13, 00:01:00,VALID,0,VALID,98.8965,VALID,0,VALID,20.2795,VALID,113,VALID,0.346217,
1999-08-13, 00:02:00,VALID,0,VALID,98.899,VALID,-0.0169808,VALID,20.2926,VALID,103,VALID,0.151843,
1999-08-13, 00:03:00,VALID,0,VALID,98.9194,VALID,0,VALID,20.3088,VALID,112,VALID,0.0172276,
1999-08-13, 00:04:00,VALID,0,VALID,98.9245,VALID,-0.0169808,VALID,20.3212,VALID,119,VALID,0,
1999-08-13, 00:05:00,VALID,0,VALID,98.9181,VALID,0,VALID,20.3341,VALID,131,VALID,0.000211149,
1999-08-13, 00:06:00,VALID,0,VALID,98.9016,VALID,-0.0339617,VALID,20.3344,VALID,272,VALID,0.174262,
1999-08-13, 00:07:00,VALID,0,VALID,98.8609,VALID,-0.0509425,VALID,20.3153,VALID,291,VALID,0.320513,
1999-08-13, 00:08:00,VALID,0,VALID,98.8787,VALID,-0.0509425,VALID,20.3056,VALID,294,VALID,0.0625,
1999-08-13, 00:09:00,VALID,0,VALID,98.8723,VALID,-0.0339617,VALID,20.2994,VALID,291,VALID,0,
1999-08-13, 00:10:00,VALID,0,VALID,98.8838,VALID,-0.0509425,VALID,20.2959,VALID,291,VALID,0,
1999-08-13, 00:11:00,VALID,0,VALID,98.9003,VALID,-0.0849042,VALID,20.2926,VALID,260,VALID,0,
1999-08-13, 00:12:00,VALID,0,VALID,98.8889,VALID,-0.0509425,VALID,20.3021,VALID,217,VALID,0.30008,
1999-08-13, 00:13:00,VALID,0,VALID,98.8812,VALID,-0.0169808,VALID,20.2988,VALID,217,VALID,0.530248,
1999-08-13, 00:14:00,VALID,0,VALID,98.8329,VALID,-0.0339617,VALID,20.2765,VALID,213,VALID,0.426215,
1999-08-13, 00:15:00,VALID,0,VALID,98.852,VALID,-0.0339617,VALID,20.2633,VALID,217,VALID,0.313477,
1999-08-13, 00:16:00,VALID,0,VALID,98.852,VALID,-0.0169808,VALID,20.2533,VALID,219,VALID,0.238181,
1999-08-13, 00:17:00,VALID,0,VALID,98.8533,VALID,-0.0169808,VALID,20.2541,VALID,219,VALID,0.182091,
1999-08-13, 00:18:00,VALID,0,VALID,98.8622,VALID,-0.0339617,VALID,20.2444,VALID,219,VALID,0.0345395,
1999-08-13, 00:19:01,VALID,0,VALID,98.8545,VALID,-0.0339617,VALID,20.228,VALID,219,VALID,0,
1999-08-13, 00:20:00,VALID,0,VALID,98.8584,VALID,-0.101885,VALID,20.2118,VALID,219,VALID,0.0010016,
1999-08-13, 00:21:00,VALID,0,VALID,98.8418,VALID,-0.0169808,VALID,20.2021,VALID,219,VALID,0,
1999-08-13, 00:22:00,VALID,0,VALID,98.838,VALID,-0.0169808,VALID,20.1959,VALID,219,VALID,0,
1999-08-13, 00:23:00,VALID,0,VALID,98.8482,VALID,-0.0679233,VALID,20.186,VALID,219,VALID,0.0010016,
1999-08-13, 00:24:00,VALID,0,VALID,98.8685,VALID,-0.0169808,VALID,20.1897,VALID,219,VALID,0.00246711,
1999-08-13, 00:25:00,VALID,0,VALID,98.8673,VALID,-0.0509425,VALID,20.1795,VALID,219,VALID,0,
1999-08-13, 00:26:00,VALID,0,VALID,98.8698,VALID,-0.0169808,VALID,20.1763,VALID,219,VALID,0,
1999-08-13, 00:27:00,VALID,0,VALID,98.8609,VALID,-0.0169808,VALID,20.1892,VALID,226,VALID,0.00736607,
1999-08-13, 00:28:00,VALID,0,VALID,98.8444,VALID,-0.0509425,VALID,20.1733,VALID,289,VALID,0.351339,
1999-08-13, 00:29:00,VALID,0,VALID,98.8088,VALID,-0.0169808,VALID,20.144,VALID,292,VALID,0.242989,
1999-08-13, 00:30:01,VALID,0,VALID,98.8202,VALID,-0.0339617,VALID,20.1303,VALID,298,VALID,0.204078,
1999-08-13, 00:31:00,VALID,0,VALID,98.8227,VALID,-0.0339617,VALID,20.1313,VALID,285,VALID,0.0614984,
1999-08-13, 00:32:00,VALID,0,VALID,98.8367,VALID,-0.0339617,VALID,20.131,VALID,285,VALID,0,
1999-08-13, 00:33:00,VALID,0,VALID,98.8126,VALID,-0.0339617,VALID,20.1149,VALID,286,VALID,0,
1999-08-13, 00:34:00,VALID,0.2,VALID,98.8227,VALID,-0.0509425,VALID,20.0987,VALID,315,VALID,0.268159,
1999-08-13, 00:35:00,VALID,0,VALID,98.8278,VALID,0,VALID,20.0858,VALID,20,VALID,0.386018,
1999-08-13, 00:36:00,VALID,0,VALID,98.8393,VALID,-0.0849042,VALID,20.0731,VALID,31,VALID,0.20991,
1999-08-13, 00:37:00,VALID,0,VALID,98.8431,VALID,-0.0679233,VALID,20.0766,VALID,30,VALID,0,
1999-08-13, 00:38:00,VALID,0,VALID,98.8406,VALID,-0.0509425,VALID,20.0632,VALID,30,VALID,0,
1999-08-13, 00:39:00,VALID,0,VALID,98.8456,VALID,-0.0849042,VALID,20.0542,VALID,83,VALID,0,
1999-08-13, 00:40:00,VALID,0,VALID,98.8494,VALID,-0.101885,VALID,20.0674,VALID,100,VALID,0,
1999-08-13, 00:41:01,VALID,0,VALID,98.8533,VALID,-0.0509425,VALID,20.0607,VALID,100,VALID,0,
1999-08-13, 00:42:00,VALID,0,VALID,98.8406,VALID,-0.0849042,VALID,20.051,VALID,100,VALID,0,
1999-08-13, 00:43:00,VALID,0,VALID,98.838,VALID,-0.0849042,VALID,20.0281,VALID,100,VALID,0,
1999-08-13, 00:44:00,VALID,0,VALID,98.8266,VALID,-0.0849042,VALID,20.0055,VALID,100,VALID,0,
1999-08-13, 00:45:00,VALID,0,VALID,98.8494,VALID,-0.101885,VALID,20.0222,VALID,100,VALID,0,
1999-08-13, 00:46:00,VALID,0,VALID,98.8418,VALID,-0.101885,VALID,19.9958,VALID,100,VALID,0,
1999-08-13, 00:47:00,VALID,0,VALID,98.8393,VALID,-0.0679233,VALID,19.9893,VALID,101,VALID,0,
1999-08-13, 00:48:00,VALID,0,VALID,98.8329,VALID,-0.0339617,VALID,19.9635,VALID,98,VALID,0.469572,
1999-08-13, 00:49:00,VALID,0,VALID,98.8812,VALID,-0.0339617,VALID,19.9732,VALID,99,VALID,0.765419,
1999-08-13, 00:50:00,VALID,0,VALID,98.9232,VALID,-0.101885,VALID,20.0085,VALID,96,VALID,0.830529,
1999-08-13, 00:51:01,VALID,0,VALID,98.9321,VALID,-0.0849042,VALID,20.0311,VALID,100,VALID,0.816311,
1999-08-13, 00:52:01,VALID,0,VALID,98.913,VALID,-0.0339617,VALID,20.0249,VALID,104,VALID,0.642187,
1999-08-13, 00:53:00,VALID,0,VALID,98.9079,VALID,-0.0339617,VALID,20.0114,VALID,106,VALID,0.623397,
1999-08-13, 00:54:00,VALID,0,VALID,98.8927,VALID,-0.0339617,VALID,20.0018,VALID,99,VALID,0.910773,
1999-08-13, 00:55:00,VALID,0,VALID,98.8927,VALID,-0.0169808,VALID,20.0149,VALID,93,VALID,0.74043,
1999-08-13, 00:56:00,VALID,0,VALID,98.9156,VALID,-0.0169808,VALID,20.0147,VALID,96,VALID,0.666735,
1999-08-13, 00:57:00,VALID,0,VALID,98.9359,VALID,-0.0509425,VALID,20.0341,VALID,96,VALID,0.51875,
1999-08-13, 00:58:00,VALID,0,VALID,98.9372,VALID,-0.0339617,VALID,20.0405,VALID,101,VALID,0.472991,
1999-08-13, 00:59:00,VALID,0,VALID,98.9346,VALID,-0.0339617,VALID,20.0505,VALID,116,VALID,0.420473,
1999-08-13, 01:00:00,VALID,0,VALID,98.9436,VALID,-0.0169808,VALID,20.0666,VALID,115,VALID,0.529154,
1999-08-13, 01:01:00,VALID,0,VALID,98.9334,VALID,-0.0509425,VALID,20.0704,VALID,111,VALID,0.880609,
1999-08-13, 01:02:00,VALID,0,VALID,98.8927,VALID,-0.0339617,VALID,20.0378,VALID,111,VALID,1.1655,
1999-08-13, 01:03:01,VALID,0,VALID,98.8978,VALID,0,VALID,20.0214,VALID,97,VALID,0.862965,
1999-08-13, 01:04:00,VALID,0,VALID,98.9118,VALID,-0.0339617,VALID,20.0182,VALID,90,VALID,0.760135,
1999-08-13, 01:05:00,VALID,0,VALID,98.9436,VALID,-0.0169808,VALID,20.0308,VALID,131,VALID,0.684495,
1999-08-13, 01:06:00,VALID,0,VALID,98.927,VALID,-0.0849042,VALID,20.0415,VALID,130,VALID,0.592928,
1999-08-13, 01:07:00,VALID,0,VALID,98.9372,VALID,-0.0339617,VALID,20.0373,VALID,120,VALID,0.379808,
1999-08-13, 01:08:00,VALID,0,VALID,98.9321,VALID,-0.0679233,VALID,20.0413,VALID,137,VALID,0.165707,
1999-08-13, 01:09:00,VALID,0,VALID,98.8876,VALID,-0.0679233,VALID,20.0284,VALID,166,VALID,0.303248,
1999-08-13, 01:10:00,VALID,0,VALID,98.8851,VALID,-0.0849042,VALID,20.002,VALID,173,VALID,0.0890625,
1999-08-13, 01:11:00,VALID,0,VALID,98.9245,VALID,-0.0509425,VALID,20.008,VALID,173,VALID,0,
1999-08-13, 01:12:01,VALID,0,VALID,98.9308,VALID,-0.0339617,VALID,20.0114,VALID,173,VALID,0,
1999-08-13, 01:13:01,VALID,0,VALID,98.9423,VALID,-0.0339617,VALID,20.0246,VALID,173,VALID,0,
1999-08-13, 01:14:01,VALID,0,VALID,98.9703,VALID,-0.0509425,VALID,20.0341,VALID,164,VALID,0.113281,
1999-08-13, 01:15:00,VALID,0,VALID,98.9855,VALID,0,VALID,20.0701,VALID,153,VALID,0.0166016,
1999-08-13, 01:16:00,VALID,0,VALID,98.969,VALID,-0.0509425,VALID,20.0761,VALID,151,VALID,0.115785,
1999-08-13, 01:17:00,VALID,0,VALID,98.9881,VALID,-0.0169808,VALID,20.0888,VALID,135,VALID,0.234375,
1999-08-13, 01:18:00,VALID,0,VALID,98.9741,VALID,0,VALID,20.0858,VALID,127,VALID,0.307155,
1999-08-13, 01:19:00,VALID,0,VALID,98.9359,VALID,-0.0679233,VALID,20.0729,VALID,150,VALID,0.33347,
1999-08-13, 01:20:00,VALID,0,VALID,98.8787,VALID,-0.0169808,VALID,20.0505,VALID,177,VALID,0.51262,
1999-08-13, 01:21:00,VALID,0,VALID,98.8952,VALID,-0.0509425,VALID,20.0013,VALID,205,VALID,0.532965,
1999-08-13, 01:22:00,VALID,0,VALID,98.9168,VALID,-0.0169808,VALID,20.0122,VALID,205,VALID,0.560352,
1999-08-13, 01:23:00,VALID,0,VALID,98.9143,VALID,-0.0339617,VALID,19.9988,VALID,234,VALID,0.48097,
1999-08-13, 01:24:00,VALID,0,VALID,98.9079,VALID,-0.0509425,VALID,19.9791,VALID,232,VALID,0.59889,
1999-08-13, 01:25:00,VALID,0,VALID,98.9219,VALID,0,VALID,19.9692,VALID,233,VALID,0.698438,
1999-08-13, 01:26:00,VALID,0,VALID,98.9359,VALID,-0.0509425,VALID,19.9697,VALID,235,VALID,0.546053,
1999-08-13, 01:27:00,VALID,0,VALID,98.8952,VALID,-0.0509425,VALID,19.9602,VALID,231,VALID,0.493527,
1999-08-13, 01:28:00,VALID,0,VALID,98.88,VALID,-0.0509425,VALID,19.9242,VALID,234,VALID,0.372991,
1999-08-13, 01:29:00,VALID,0,VALID,98.941,VALID,-0.0679233,VALID,19.9274,VALID,244,VALID,0.466947,
1999-08-13, 01:30:00,VALID,0,VALID,98.9741,VALID,-0.0339617,VALID,19.9471,VALID,249,VALID,0.345084,
1999-08-13, 01:31:00,VALID,0,VALID,98.9842,VALID,-0.0509425,VALID,19.9665,VALID,227,VALID,0.408454,
1999-08-13, 01:32:00,VALID,0,VALID,98.9893,VALID,-0.0169808,VALID,19.9829,VALID,237,VALID,0.796258,
1999-08-13, 01:33:00,VALID,0,VALID,98.9092,VALID,-0.0169808,VALID,19.9767,VALID,239,VALID,1.53906,
1999-08-13, 01:34:00,VALID,0,VALID,98.9219,VALID,-0.0169808,VALID,19.951,VALID,224,VALID,0.776182,
1999-08-13, 01:35:00,VALID,0,VALID,98.9207,VALID,-0.0339617,VALID,19.9473,VALID,246,VALID,1.3752,
1999-08-13, 01:36:00,VALID,0,VALID,98.955,VALID,-0.0509425,VALID,19.9575,VALID,196,VALID,1.21978,
1999-08-13, 01:37:00,VALID,0,VALID,98.899,VALID,-0.0339617,VALID,19.905,VALID,177,VALID,1.6861,
1999-08-13, 01:38:00,VALID,0,VALID,98.9207,VALID,-0.0169808,VALID,19.8991,VALID,183,VALID,1.32586,
1999-08-13, 01:39:00,VALID,0,VALID,98.913,VALID,-0.0509425,VALID,19.8697,VALID,193,VALID,1.26706,
1999-08-13, 01:40:00,VALID,0,VALID,98.9499,VALID,-0.0509425,VALID,19.8633,VALID,189,VALID,0.953711,
1999-08-13, 01:41:00,VALID,0,VALID,98.9715,VALID,-0.0169808,VALID,19.8538,VALID,187,VALID,0.775493,
1999-08-13, 01:42:00,VALID,0,VALID,98.9766,VALID,-0.0849042,VALID,19.8601,VALID,190,VALID,0.773655,
1999-08-13, 01:43:00,VALID,0,VALID,98.9957,VALID,-0.0339617,VALID,19.8596,VALID,178,VALID,0.839944,
1999-08-13, 01:44:00,VALID,0,VALID,98.9792,VALID,-0.0339617,VALID,19.8533,VALID,218,VALID,0.745226,
1999-08-13, 01:45:00,VALID,0,VALID,98.9855,VALID,-0.0679233,VALID,19.8436,VALID,192,VALID,0.680664,
1999-08-13, 01:46:00,VALID,0,VALID,98.9652,VALID,-0.0509425,VALID,19.8409,VALID,185,VALID,1.23478,
1999-08-13, 01:47:00,VALID,0,VALID,98.9563,VALID,-0.0169808,VALID,19.8049,VALID,188,VALID,1.10897,
1999-08-13, 01:48:00,VALID,0,VALID,98.9868,VALID,0,VALID,19.8011,VALID,201,VALID,0.523849,
1999-08-13, 01:49:00,VALID,0,VALID,99.0122,VALID,-0.0169808,VALID,19.817,VALID,184,VALID,0.126439,
1999-08-13, 01:50:00,VALID,0,VALID,98.9893,VALID,0,VALID,19.8103,VALID,162,VALID,0.795873,
1999-08-13, 01:51:00,VALID,0,VALID,98.9995,VALID,0,VALID,19.8044,VALID,161,VALID,0.592035,
1999-08-13, 01:52:00,VALID,0,VALID,99.0008,VALID,0,VALID,19.8041,VALID,171,VALID,0.356641,
1999-08-13, 01:53:00,VALID,0,VALID,98.9982,VALID,0,VALID,19.7842,VALID,170,VALID,0.47496,
1999-08-13, 01:54:00,VALID,0,VALID,98.983,VALID,0.0679233,VALID,19.7743,VALID,142,VALID,0.493215,
1999-08-13, 01:55:00,VALID,0,VALID,99.0173,VALID,0,VALID,19.7748,VALID,115,VALID,0.847461,
1999-08-13, 01:56:00,VALID,0,VALID,99.0287,VALID,0,VALID,19.7785,VALID,115,VALID,1.09108,
1999-08-13, 01:57:01,VALID,0,VALID,98.9982,VALID,0,VALID,19.7459,VALID,122,VALID,0.891964,
1999-08-13, 01:58:00,VALID,0,VALID,98.9982,VALID,0,VALID,19.7295,VALID,145,VALID,0.893304,
1999-08-13, 01:59:00,VALID,0,VALID,98.9741,VALID,0.0169808,VALID,19.7106,VALID,150,VALID,1.17428,
1999-08-13, 02:00:00,VALID,0,VALID,98.9652,VALID,-0.0169808,VALID,19.688,VALID,160,VALID,1.12691,
1999-08-13, 02:01:00,VALID,0,VALID,98.9563,VALID,0,VALID,19.6557,VALID,150,VALID,0.860777,
1999-08-13, 02:02:00,VALID,0,VALID,98.9728,VALID,-0.0509425,VALID,19.6396,VALID,158,VALID,0.799342,
1999-08-13, 02:03:00,VALID,0,VALID,98.9817,VALID,-0.101885,VALID,19.6212,VALID,172,VALID,0.537373,
1999-08-13, 02:04:00,VALID,0,VALID,98.9944,VALID,-0.0849042,VALID,19.6184,VALID,186,VALID,0.55152,
1999-08-13, 02:05:00,VALID,0,VALID,98.9931,VALID,-0.101885,VALID,19.6115,VALID,200,VALID,0.804888,
1999-08-13, 02:06:00,VALID,0,VALID,98.9919,VALID,-0.101885,VALID,19.5923,VALID,186,VALID,0.516447,
1999-08-13, 02:07:00,VALID,0,VALID,98.9982,VALID,-0.101885,VALID,19.5799,VALID,183,VALID,0.977564,
1999-08-13, 02:08:00,VALID,0,VALID,99.0122,VALID,-0.101885,VALID,19.5632,VALID,192,VALID,0.702097,
1999-08-13, 02:09:00,VALID,0,VALID,98.9906,VALID,-0.101885,VALID,19.557,VALID,183,VALID,0.83347,
1999-08-13, 02:10:00,VALID,0,VALID,98.9741,VALID,-0.118866,VALID,19.5381,VALID,190,VALID,0.729297,
1999-08-13, 02:11:00,VALID,0,VALID,98.9881,VALID,-0.101885,VALID,19.5249,VALID,210,VALID,1.06785,
1999-08-13, 02:12:00,VALID,0,VALID,98.9817,VALID,-0.101885,VALID,19.5018,VALID,206,VALID,1.03624,
1999-08-13, 02:13:00,VALID,0,VALID,98.9817,VALID,-0.101885,VALID,19.4894,VALID,190,VALID,1.43429,
1999-08-13, 02:14:00,VALID,0,VALID,98.9753,VALID,-0.0679233,VALID,19.4732,VALID,170,VALID,1.16276,
1999-08-13, 02:15:00,VALID,0,VALID,98.9639,VALID,-0.101885,VALID,19.4538,VALID,183,VALID,0.866797,
1999-08-13, 02:16:00,VALID,0,VALID,98.9728,VALID,-0.101885,VALID,19.4215,VALID,189,VALID,1.19912,
1999-08-13, 02:17:00,VALID,0,VALID,98.9766,VALID,-0.0509425,VALID,19.4113,VALID,193,VALID,1.01062,
1999-08-13, 02:18:00,VALID,0,VALID,98.9855,VALID,-0.0169808,VALID,19.3942,VALID,196,VALID,1.0074,
1999-08-13, 02:19:00,VALID,0,VALID,99.0122,VALID,0.0169808,VALID,19.3912,VALID,194,VALID,1.30839,
1999-08-13, 02:20:00,VALID,0,VALID,99.03,VALID,0,VALID,19.3848,VALID,209,VALID,1.72296,
1999-08-13, 02:21:00,VALID,0,VALID,99.0491,VALID,-0.0679233,VALID,19.3751,VALID,187,VALID,1.00419,
1999-08-13, 02:22:00,VALID,0,VALID,99.0605,VALID,-0.0169808,VALID,19.3684,VALID,223,VALID,1.36348,
1999-08-13, 02:23:00,VALID,0,VALID,99.0669,VALID,0,VALID,19.3686,VALID,231,VALID,0.910657,
1999-08-13, 02:24:00,VALID,0,VALID,99.0275,VALID,0,VALID,19.3654,VALID,210,VALID,1.2535,
1999-08-13, 02:25:00,VALID,0,VALID,98.9944,VALID,0,VALID,19.3328,VALID,206,VALID,1.22637,
1999-08-13, 02:26:00,VALID,0,VALID,98.9639,VALID,0,VALID,19.298,VALID,203,VALID,1.81476,
1999-08-13, 02:27:00,VALID,0,VALID,98.9308,VALID,0,VALID,19.2687,VALID,198,VALID,1.84554,
1999-08-13, 02:28:00,VALID,0,VALID,98.9054,VALID,0,VALID,19.2555,VALID,198,VALID,1.53259,
1999-08-13, 02:29:00,VALID,0,VALID,98.9029,VALID,0,VALID,19.2426,VALID,191,VALID,1.92147,
1999-08-13, 02:30:00,VALID,0,VALID,98.8787,VALID,0.0169808,VALID,19.2396,VALID,200,VALID,1.66864,
1999-08-13, 02:31:00,VALID,0,VALID,98.8545,VALID,0,VALID,19.2331,VALID,207,VALID,1.34455,
1999-08-13, 02:32:00,VALID,0,VALID,98.8482,VALID,0,VALID,19.2232,VALID,202,VALID,1.2463,
1999-08-13, 02:33:00,VALID,0,VALID,98.8494,VALID,-0.0339617,VALID,19.2207,VALID,206,VALID,1.26605,
1999-08-13, 02:34:00,VALID,0,VALID,98.8316,VALID,-0.0509425,VALID,19.2105,VALID,221,VALID,1.69721,
1999-08-13, 02:35:00,VALID,0,VALID,98.8406,VALID,0,VALID,19.2135,VALID,225,VALID,1.2488,
1999-08-13, 02:36:00,VALID,0,VALID,98.838,VALID,-0.0169808,VALID,19.217,VALID,205,VALID,1.40666,
1999-08-13, 02:37:00,VALID,0,VALID,98.8151,VALID,-0.0169808,VALID,19.2006,VALID,208,VALID,1.47556,
1999-08-13, 02:38:00,VALID,0,VALID,98.7871,VALID,-0.0339617,VALID,19.2075,VALID,200,VALID,1.09951,
1999-08-13, 02:39:00,VALID,0,VALID,98.7706,VALID,0.0169808,VALID,19.1909,VALID,163,VALID,1.54256,
1999-08-13, 02:40:00,VALID,0,VALID,98.7426,VALID,0,VALID,19.1978,VALID,203,VALID,1.95742,
1999-08-13, 02:41:00,VALID,0,VALID,98.6969,VALID,0,VALID,19.1976,VALID,177,VALID,1.95251,
1999-08-13, 02:42:00,VALID,0,VALID,98.6816,VALID,0,VALID,19.2011,VALID,170,VALID,2.01736,
1999-08-13, 02:43:00,VALID,0,VALID,98.6638,VALID,0,VALID,19.1881,VALID,187,VALID,1.91386,
1999-08-13, 02:44:00,VALID,0,VALID,98.6511,VALID,-0.0169808,VALID,19.1951,VALID,187,VALID,2.2296,
1999-08-13, 02:45:00,VALID,0,VALID,98.6447,VALID,-0.0339617,VALID,19.205,VALID,187,VALID,1.97988,
1999-08-13, 02:46:00,VALID,0,VALID,98.6231,VALID,0,VALID,19.2209,VALID,198,VALID,1.25541,
1999-08-13, 02:47:00,VALID,0,VALID,98.5786,VALID,-0.0169808,VALID,19.2115,VALID,202,VALID,2.01262,
1999-08-13, 02:48:00,VALID,0,VALID,98.5354,VALID,0.0169808,VALID,19.1951,VALID,205,VALID,1.37007,
1999-08-13, 02:49:00,VALID,0,VALID,98.571,VALID,0,VALID,19.1683,VALID,208,VALID,1.45909,
1999-08-13, 02:50:00,VALID,0,VALID,98.5977,VALID,0.0169808,VALID,19.1755,VALID,211,VALID,1.2526,
1999-08-13, 02:51:01,VALID,0,VALID,98.5722,VALID,0.0169808,VALID,19.1787,VALID,214,VALID,1.28582,
1999-08-13, 02:52:00,VALID,0,VALID,98.5862,VALID,0,VALID,19.1655,VALID,223,VALID,1.3248,
1999-08-13, 02:53:00,VALID,0,VALID,98.5735,VALID,0,VALID,19.1757,VALID,211,VALID,1.84075,
1999-08-13, 02:54:00,VALID,0,VALID,98.5786,VALID,0.0339617,VALID,19.1787,VALID,227,VALID,1.60917,
1999-08-13, 02:55:00,VALID,0,VALID,98.571,VALID,0,VALID,19.1782,VALID,215,VALID,2.04219,
1999-08-13, 02:56:00,VALID,0,VALID,98.5341,VALID,0.0169808,VALID,19.1948,VALID,219,VALID,1.34868,
1999-08-13, 02:57:00,VALID,0,VALID,98.5048,VALID,-0.101885,VALID,19.1831,VALID,204,VALID,1.05089,
1999-08-13, 02:58:00,VALID,0,VALID,98.4336,VALID,-0.101885,VALID,19.1767,VALID,186,VALID,1.31853,
1999-08-13, 02:59:00,VALID,0,VALID,98.4527,VALID,-0.118866,VALID,19.1762,VALID,217,VALID,1.73878,
1999-08-13, 03:00:00,VALID,0,VALID,98.4006,VALID,-0.101885,VALID,19.1995,VALID,215,VALID,2.0747,
1999-08-13, 03:01:00,VALID,0,VALID,98.3192,VALID,-0.0849042,VALID,19.1893,VALID,221,VALID,1.72756,
1999-08-13, 03:02:00,VALID,0,VALID,98.262,VALID,-0.0339617,VALID,19.1884,VALID,199,VALID,1.91201,
1999-08-13, 03:03:01,VALID,0,VALID,98.2251,VALID,0.0169808,VALID,19.2045,VALID,206,VALID,1.86486,
1999-08-13, 03:04:00,VALID,0,VALID,98.1819,VALID,0,VALID,19.2045,VALID,209,VALID,1.77069,
1999-08-13, 03:05:00,VALID,0,VALID,98.1475,VALID,0,VALID,19.2115,VALID,213,VALID,1.73377,
1999-08-13, 03:06:00,VALID,0,VALID,98.1272,VALID,0.0169808,VALID,19.175,VALID,199,VALID,1.58244,
1999-08-13, 03:07:00,VALID,0,VALID,98.178,VALID,-0.0169808,VALID,19.1628,VALID,212,VALID,1.4992,
1999-08-13, 03:08:00,VALID,0,VALID,98.2429,VALID,0.0169808,VALID,19.1362,VALID,216,VALID,1.02755,
1999-08-13, 03:09:00,VALID,0,VALID,98.2683,VALID,0,VALID,19.1367,VALID,198,VALID,0.998355,
1999-08-13, 03:10:00,VALID,0,VALID,98.2823,VALID,0,VALID,19.1339,VALID,198,VALID,1.33867,
1999-08-13, 03:11:00,VALID,0,VALID,98.3192,VALID,0.0169808,VALID,19.1178,VALID,199,VALID,1.22225,
1999-08-13, 03:12:00,VALID,0,VALID,98.3179,VALID,0,VALID,19.1044,VALID,202,VALID,1.70247,
1999-08-13, 03:13:01,VALID,0,VALID,98.3306,VALID,0,VALID,19.0912,VALID,174,VALID,1.28405,
1999-08-13, 03:14:01,VALID,0,VALID,98.2938,VALID,0,VALID,19.0917,VALID,215,VALID,1.16862,
1999-08-13, 03:15:00,VALID,0,VALID,98.2747,VALID,0.0509425,VALID,19.0621,VALID,225,VALID,1.06465,
1999-08-13, 03:16:00,VALID,0,VALID,98.2989,VALID,0,VALID,19.0529,VALID,208,VALID,1.45413,
1999-08-13, 03:17:00,VALID,0,VALID,98.3141,VALID,0.0339617,VALID,19.0527,VALID,217,VALID,1.24439,
1999-08-13, 03:18:00,VALID,0,VALID,98.3154,VALID,0.0339617,VALID,19.0432,VALID,208,VALID,0.682771,
1999-08-13, 03:19:00,VALID,0,VALID,98.323,VALID,0,VALID,19.0104,VALID,201,VALID,1.03598,
1999-08-13, 03:20:00,VALID,0,VALID,98.3357,VALID,0.0169808,VALID,19.0074,VALID,192,VALID,0.609575,
1999-08-13, 03:21:00,VALID,0,VALID,98.3395,VALID,0.0169808,VALID,18.9851,VALID,166,VALID,0.580412,
1999-08-13, 03:22:00,VALID,0,VALID,98.3281,VALID,0.0509425,VALID,18.9756,VALID,158,VALID,0.239258,
1999-08-13, 03:23:00,VALID,0,VALID,98.3968,VALID,0.0509425,VALID,18.962,VALID,165,VALID,0.752604,
1999-08-13, 03:24:00,VALID,0,VALID,98.4235,VALID,0,VALID,18.9724,VALID,195,VALID,0.559416,
1999-08-13, 03:25:01,VALID,0,VALID,98.4667,VALID,0.0509425,VALID,18.9527,VALID,224,VALID,0.919922,
1999-08-13, 03:26:00,VALID,0,VALID,98.4921,VALID,0.0509425,VALID,18.9523,VALID,202,VALID,0.973684,
1999-08-13, 03:27:00,VALID,0,VALID,98.515,VALID,0,VALID,18.9527,VALID,215,VALID,1.07098,
1999-08-13, 03:28:00,VALID,0,VALID,98.5061,VALID,0,VALID,18.956,VALID,221,VALID,0.841518,
1999-08-13, 03:29:00,VALID,0,VALID,98.5303,VALID,0.0339617,VALID,18.9463,VALID,213,VALID,1.13802,
1999-08-13, 03:30:00,VALID,0,VALID,98.5137,VALID,0,VALID,18.9301,VALID,221,VALID,0.94455,
1999-08-13, 03:31:00,VALID,0,VALID,98.5761,VALID,0.0339617,VALID,18.92,VALID,228,VALID,1.40585,
1999-08-13, 03:32:00,VALID,0,VALID,98.6498,VALID,0.0169808,VALID,18.9299,VALID,223,VALID,1.61143,
1999-08-13, 03:33:00,VALID,0,VALID,98.7147,VALID,-0.0339617,VALID,18.9535,VALID,223,VALID,1.06567,
1999-08-13, 03:34:00,VALID,0,VALID,98.6778,VALID,-0.0849042,VALID,18.9408,VALID,211,VALID,0.976774,
1999-08-13, 03:35:00,VALID,0,VALID,98.7337,VALID,-0.101885,VALID,18.9244,VALID,224,VALID,1.44551,
1999-08-13, 03:36:01,VALID,0,VALID,98.7655,VALID,-0.0849042,VALID,18.9472,VALID,215,VALID,0.922081,
1999-08-13, 03:37:00,VALID,0,VALID,98.7732,VALID,-0.0849042,VALID,18.9373,VALID,229,VALID,0.953926,
1999-08-13, 03:38:00,VALID,0,VALID,98.8113,VALID,-0.0849042,VALID,18.9281,VALID,228,VALID,1.44778,
1999-08-13, 03:39:00,VALID,0,VALID,98.8316,VALID,-0.101885,VALID,18.9442,VALID,226,VALID,1.46053,
1999-08-13, 03:40:00,VALID,0,VALID,98.7999,VALID,-0.0849042,VALID,18.9276,VALID,222,VALID,1.13437,
1999-08-13, 03:41:00,VALID,0,VALID,98.8227,VALID,-0.0679233,VALID,18.9077,VALID,227,VALID,1.51542,
1999-08-13, 03:42:00,VALID,0,VALID,98.894,VALID,-0.0679233,VALID,18.9271,VALID,226,VALID,1.74045,
1999-08-13, 03:43:00,VALID,0,VALID,98.9207,VALID,-0.0849042,VALID,18.9629,VALID,225,VALID,1.22376,
1999-08-13, 03:44:00,VALID,0,VALID,98.9181,VALID,-0.0849042,VALID,18.9634,VALID,212,VALID,1.38173,
1999-08-13, 03:45:00,VALID,0,VALID,98.9156,VALID,-0.0849042,VALID,18.9636,VALID,209,VALID,1.47637,
1999-08-13, 03:46:00,VALID,0,VALID,98.9156,VALID,-0.0849042,VALID,18.9537,VALID,220,VALID,1.54046,
1999-08-13, 03:47:01,VALID,0,VALID,98.9016,VALID,-0.0339617,VALID,18.953,VALID,214,VALID,1.17388,
1999-08-13, 03:48:00,VALID,0,VALID,98.9003,VALID,0.0339617,VALID,18.9324,VALID,203,VALID,0.462171,
1999-08-13, 03:49:00,VALID,0,VALID,98.8901,VALID,0.0509425,VALID,18.9167,VALID,221,VALID,1.2903,
1999-08-13, 03:50:00,VALID,0,VALID,98.894,VALID,0.0509425,VALID,18.9105,VALID,210,VALID,0.984976,
1999-08-13, 03:51:00,VALID,0,VALID,98.9207,VALID,0.0339617,VALID,18.904,VALID,233,VALID,0.764672,
1999-08-13, 03:52:00,VALID,0,VALID,98.9715,VALID,0,VALID,18.8939,VALID,219,VALID,0.726563,
1999-08-13, 03:53:00,VALID,0,VALID,98.969,VALID,0.0169808,VALID,18.907,VALID,214,VALID,0.623598,
1999-08-13, 03:54:00,VALID,0,VALID,98.9741,VALID,0.0339617,VALID,18.9001,VALID,237,VALID,0.153577,
1999-08-13, 03:55:00,VALID,0,VALID,98.9537,VALID,0.0339617,VALID,18.9001,VALID,241,VALID,0.146094,
1999-08-13, 03:56:00,VALID,0,VALID,98.9486,VALID,0.0339617,VALID,18.8874,VALID,241,VALID,0.104646,
1999-08-13, 03:57:01,VALID,0,VALID,98.9258,VALID,0.0169808,VALID,18.8715,VALID,262,VALID,0.345089,
1999-08-13, 03:58:01,VALID,0,VALID,98.9385,VALID,0.0169808,VALID,18.8588,VALID,264,VALID,0.297991,
1999-08-13, 03:59:00,VALID,0,VALID,98.9512,VALID,0,VALID,18.8657,VALID,271,VALID,0.364784,
1999-08-13, 04:00:00,VALID,0,VALID,98.9588,VALID,0,VALID,18.8516,VALID,243,VALID,0.0967988,
1999-08-13, 04:01:00,VALID,0,VALID,98.9931,VALID,0,VALID,18.8586,VALID,249,VALID,0.454928,
1999-08-13, 04:02:00,VALID,0,VALID,99.016,VALID,0,VALID,18.8787,VALID,244,VALID,0.49301,
1999-08-13, 04:03:00,VALID,0,VALID,99.0237,VALID,0,VALID,18.8717,VALID,229,VALID,0.558699,
1999-08-13, 04:04:00,VALID,0,VALID,99.0313,VALID,0,VALID,18.878,VALID,221,VALID,0.764569,